Helicity
105 101 65 38 54 57 81 78 -10 49 2 37 32 93 109 -22 -122 36 118 158 126 168 -29 25 62 79 97 115 124 120 129 115 163 174 171 163 141 153 141 117 95 84 88 83
51 73 46 63 72 31 36 -35 -8 -13 39 52 70 39 55 69 -77 -47 80 95 130 8 37 27 11 83 93 101 127 137 120 129 165 170 156 158 159 163 164 159 134 109 95 94
73 81 67 70 60 42 51 13 6 34 89 55 42 42 28 29 26 7 56 69 79 82 101 62 18 28 124 96 98 120 125 147 171 146 165 194 232 230 199 162 153 129 107 110
133 108 58 46 48 31 60 19 23 27 63 59 35 129 32 -25 3 27 52 42 37 65 181 272 191 131 89 102 79 120 161 165 148 149 198 201 207 206 153 156 146 138 126 121
93 119 115 62 80 64 92 40 69 49 33 36 19 68 93 40 8 26 -0 81 80 102 161 204 159 157 77 64 108 154 139 159 155 169 207 211 188 178 179 171 178 159 142 126
148 160 126 154 92 81 124 127 56 89 33 -8 14 10 82 46 57 69 131 82 100 143 153 149 94 112 141 141 114 128 158 155 182 191 194 192 177 178 223 216 184 178 170 162
72 140 150 127 99 116 51 39 33 49 33 27 -23 18 -3 64 38 28 42 98 92 88 128 178 122 127 165 183 147 347 207 200 211 212 209 180 165 204 220 209 210 213 211 194
103 70 116 96 121 104 66 55 73 96 95 86 70 -14 -23 24 34 26 57 62 70 100 76 104 142 116 90 121 151 321 210 216 244 272 230 197 193 244 228 216 227 212 193 183
109 89 109 112 102 69 49 68 63 100 54 59 59 51 64 95 41 23 7 22 53 54 71 96 76 93 90 76 59 88 126 153 223 275 259 194 201 246 249 227 224 223 224 217
143 128 105 119 82 80 85 61 49 67 64 68 62 18 24 55 15 23 25 11 2 26 59 58 76 91 71 51 66 66 162 162 201 282 274 247 213 225 225 245 260 287 307 302
108 145 148 123 112 105 115 95 110 120 95 114 103 90 -20 -42 20 40 33 -3 -21 -38 -16 39 54 62 75 84 53 47 101 143 140 253 251 245 257 287 284 266 281 329 414 384
166 143 170 133 139 118 132 131 87 125 107 121 115 152 42 37 36 8 -9 2 -14 10 -24 -5 42 50 64 77 88 133 219 216 267 318 317 301 336 387 490 475 505 513 453 473
173 159 177 140 151 135 168 162 150 102 101 192 169 119 97 62 -23 22 11 -33 -53 57 8 2 20 55 54 56 74 136 166 185 176 240 283 402 397 507 597 612 647 604 559 595
182 200 178 236 156 96 114 134 105 81 252 244 352 168 74 47 -9 -63 -4 25 93 95 60 37 73 51 72 66 64 84 167 185 229 304 394 420 567 605 707 751 708 716 549 506
201 220 171 132 90 73 92 161 107 168 151 252 239 160 109 88 28 76 57 51 71 69 57 68 65 65 83 92 85 112 179 291 346 374 411 436 464 579 684 733 659 600 662 464
272 251 206 117 100 68 90 147 196 138 76 133 168 150 118 61 119 79 42 59 61 70 62 65 64 74 68 106 105 151 177 243 293 314 352 439 520 546 581 640 633 547 549 312
281 322 235 190 131 90 70 43 38 109 125 163 167 177 141 88 104 91 105 81 68 64 51 45 38 72 75 88 120 132 171 231 254 314 368 399 438 499 524 516 502 433 393 336
124 99 150 202 142 192 75 82 69 76 69 75 112 121 98 111 84 64 56 53 42 49 49 27 4 13 99 167 164 158 175 223 275 296 321 371 426 438 427 427 383 375 368 325
147 142 217 210 211 163 54 82 158 153 103 30 110 89 51 121 119 34 51 44 35 37 15 -1 -9 -10 60 183 190 161 145 185 225 261 259 289 347 398 381 351 344 317 309 296
250 211 322 269 248 224 252 159 140 93 124 145 210 223 198 159 177 99 63 74 94 84 57 22 -0 41 96 151 215 178 169 205 213 230 240 252 250 260 274 292 305 327 294 292
257 288 294 270 292 305 226 141 104 212 188 88 30 58 95 132 84 71 85 81 27 17 30 56 48 75 129 188 187 248 211 239 249 269 275 277 281 327 372 419 398 377 406 403
295 274 297 258 302 293 251 185 299 135 -64 -3 56 31 45 22 45 96 155 144 54 -19 47 57 65 95 177 233 266 241 204 237 298 334 354 366 384 421 442 448 464 460 436 418
322 289 274 318 316 88 23 70 79 49 34 29 59 48 107 151 137 146 111 81 61 44 38 94 114 132 155 208 256 209 263 358 381 435 439 455 492 494 532 577 574 555 523 490
266 219 281 276 309 247 146 68 27 53 68 33 44 120 136 157 175 112 61 59 83 79 83 123 107 137 185 227 284 250 349 456 473 482 510 563 584 630 645 649 609 554 366 259
235 177 301 229 248 162 256 225 165 177 145 80 75 29 30 41 -38 63 42 64 72 74 30 148 170 176 206 226 261 361 395 482 458 490 560 628 693 696 677 582 462 310 233 207
255 241 209 212 207 187 118 121 87 46 62 55 35 39 55 33 17 26 68 54 52 84 84 120 141 178 189 235 229 371 450 485 482 429 525 619 605 591 559 559 466 281 255 239
Wind_Speed
37 50 50 36 26 19 15 16 33 32 36 46 67 72 61 62 44 50 50 42 42 44 32 36 41 39 42 38 36 38 40 43 37 35 34 33 32 27 25 22 14 15 13 12
56 54 38 26 22 19 21 30 11 25 36 39 49 66 65 62 51 43 52 52 54 50 53 35 31 40 44 45 44 41 42 45 42 39 37 35 33 32 29 23 21 19 16 16
55 48 38 34 40 29 43 39 13 19 33 45 47 59 68 63 61 54 51 52 58 49 37 52 37 32 49 50 52 49 45 44 44 43 40 35 32 30 32 29 26 23 19 19
48 47 43 40 47 36 38 26 11 18 35 34 38 55 44 53 55 53 47 48 54 56 47 34 47 38 39 56 57 53 49 48 48 46 44 43 41 39 38 30 26 22 20 20
52 49 49 43 42 35 32 14 14 16 27 41 35 44 45 34 50 57 59 53 52 55 49 48 50 45 54 50 63 57 57 54 52 50 49 49 48 43 35 31 26 25 24 21
37 44 46 44 28 23 22 22 18 25 24 33 33 39 49 42 42 48 46 54 48 48 50 46 47 51 53 51 54 55 54 56 55 53 52 51 49 44 36 35 32 28 25 23
45 42 44 44 42 38 39 39 41 38 34 26 37 44 48 51 42 45 50 48 46 46 46 38 49 53 52 53 49 49 49 53 56 58 59 57 53 45 41 39 36 30 28 26
52 50 46 46 48 38 35 43 44 36 31 18 18 39 42 33 37 42 44 47 48 47 47 40 42 42 48 58 58 38 45 51 49 59 61 59 53 49 45 41 36 35 32 28
50 46 38 41 41 39 36 46 34 29 20 23 27 19 36 31 38 37 39 41 46 47 47 44 43 44 38 41 52 58 42 58 55 53 55 61 56 51 49 41 36 36 32 29
44 44 39 37 35 33 35 31 39 32 31 29 18 11 28 27 37 38 41 44 45 46 49 50 48 47 42 42 37 50 59 43 60 56 57 57 56 51 48 43 40 37 33 26
38 37 31 32 30 33 35 33 30 28 23 28 21 20 8 12 9 38 49 52 54 51 50 50 47 46 49 52 47 40 43 47 50 48 46 53 54 49 49 47 42 39 32 26
39 38 39 20 34 27 30 32 29 33 29 19 16 8 22 30 36 15 4 54 60 51 53 53 51 51 50 50 52 49 41 40 46 52 41 44 50 54 54 52 50 45 37 32
41 40 47 45 38 32 31 33 24 19 20 17 23 19 27 13 24 33 21 22 16 43 50 56 58 57 58 59 57 55 52 48 46 45 46 46 49 58 50 46 37 36 31 29
43 36 31 34 29 29 26 23 23 12 18 16 15 22 22 20 19 74 73 70 48 51 51 58 53 60 54 55 57 57 57 55 51 51 49 50 47 43 47 44 42 33 31 27
38 40 32 23 31 32 27 27 19 18 20 22 29 21 27 22 23 55 55 60 59 52 45 42 32 42 49 50 51 51 48 40 43 46 49 51 50 46 42 36 37 34 29 26
35 45 48 42 47 33 27 26 24 18 19 22 25 28 22 21 40 53 57 52 52 51 49 48 41 29 30 36 39 37 38 39 34 39 43 41 41 41 43 41 38 35 27 25
45 46 54 50 60 81 69 40 41 39 33 35 40 36 36 52 55 49 46 47 48 50 50 50 47 35 26 28 32 38 36 32 35 34 32 32 32 33 33 33 32 33 30 22
33 45 56 68 70 61 48 55 53 57 49 54 53 51 45 44 45 41 42 41 46 50 53 56 53 45 33 27 29 31 31 31 28 28 26 24 25 25 24 24 21 20 22 20
29 40 53 59 58 69 71 61 50 57 63 83 59 52 56 41 43 47 43 38 43 50 53 55 57 52 36 30 26 24 25 25 22 20 18 19 20 20 20 19 17 19 22 19
45 42 46 58 70 76 60 56 52 57 84 62 67 66 66 48 54 57 49 46 55 58 58 60 56 51 38 32 27 23 21 22 24 23 21 20 20 22 24 25 23 22 20 17
55 54 55 62 73 69 69 62 55 69 64 75 72 73 73 70 63 68 62 67 70 71 72 66 60 54 43 33 31 30 27 25 24 23 23 24 23 24 23 22 20 19 18 17
64 66 65 63 70 82 57 62 64 76 82 81 82 77 78 76 81 82 86 90 89 80 76 70 68 62 48 38 32 35 35 31 25 23 24 24 25 24 24 22 20 19 18 18
79 65 78 67 72 74 75 74 77 84 89 95 98 99 97 97 97 97 97 97 93 89 80 71 68 62 50 42 36 40 35 26 25 26 26 25 23 23 22 22 20 20 18 23
75 77 82 89 69 87 91 92 92 93 97 95 96 104 105 107 109 107 99 93 92 91 86 77 70 65 55 43 37 38 32 28 26 28 27 25 24 23 21 21 21 22 26 24
80 83 89 88 85 100 82 98 101 110 110 111 115 109 107 105 108 107 108 105 102 99 93 78 72 67 58 45 40 32 29 28 31 29 27 25 23 25 23 21 20 22 21 20
69 71 77 80 88 87 97 102 101 103 111 113 111 113 109 105 107 108 108 105 101 99 92 83 73 68 59 49 45 31 23 25 29 32 29 27 26 25 23 19 19 19 17 16
Wind_Direction
64 55 55 62 74 89 106 122 71 288 290 262 241 243 251 250 273 248 239 243 243 247 273 256 247 248 241 240 238 239 242 244 245 246 249 254 257 263 270 275 280 289 298 315
53 52 57 67 71 81 94 79 69 107 286 283 255 246 253 256 263 262 251 247 245 249 264 262 254 248 247 245 245 245 246 246 247 249 251 254 255 263 268 273 279 286 291 298
51 53 59 65 63 67 64 61 131 206 254 269 270 258 251 254 249 250 250 252 249 255 257 251 254 260 256 250 250 248 248 247 248 249 251 252 257 262 266 267 273 280 287 294
55 52 53 56 58 63 71 74 157 222 278 282 290 250 251 252 252 257 257 257 254 249 255 252 260 260 261 258 256 252 250 249 249 248 248 248 251 254 262 261 266 275 283 288
48 49 50 53 54 63 67 71 108 168 238 289 285 264 265 268 264 259 261 261 263 259 259 264 260 263 258 267 263 255 251 250 250 248 249 251 254 258 258 257 259 269 275 281
46 51 54 53 54 67 57 58 93 104 105 302 301 284 264 264 275 276 282 270 267 269 265 268 271 269 264 263 266 256 253 251 249 248 249 250 253 253 253 254 257 261 266 273
37 46 48 49 49 59 51 58 70 73 78 76 318 291 273 287 292 289 280 287 286 278 276 271 272 272 266 262 265 262 252 253 250 249 249 251 252 251 251 253 256 255 260 267
29 31 38 41 45 51 56 58 62 63 64 73 106 303 291 309 306 305 301 294 292 290 284 281 274 283 273 268 268 261 250 254 251 251 251 252 251 251 253 253 256 257 260 263
24 27 37 39 39 50 52 51 58 64 81 83 91 107 334 325 313 312 309 306 302 299 292 292 285 282 277 283 266 263 264 257 256 254 253 252 250 248 250 252 253 257 261 265
25 20 34 35 44 51 52 52 50 58 58 62 72 96 84 28 316 312 308 307 309 310 303 296 294 291 284 284 276 264 262 257 262 258 254 253 248 248 251 251 253 255 259 256
23 27 26 27 43 33 35 47 52 50 58 49 50 67 96 232 137 328 307 306 305 303 302 303 306 301 292 287 280 271 255 258 261 260 254 253 249 247 249 249 255 262 260 261
15 13 13 5 26 46 37 30 34 29 31 29 18 301 69 46 28 60 237 314 306 304 302 301 303 301 299 295 286 274 259 254 250 255 251 246 251 254 250 252 256 261 261 272
6 7 360 10 24 36 23 19 24 18 13 1 11 18 32 13 327 356 355 274 244 322 309 301 297 298 294 291 287 281 275 264 260 250 246 244 246 250 250 246 249 255 258 265
352 355 353 346 343 346 329 331 338 327 348 339 302 270 277 275 287 292 315 317 324 322 323 316 302 297 296 293 289 285 277 274 269 262 255 248 242 241 250 247 245 251 257 261
349 340 340 324 334 331 306 295 298 321 289 319 278 290 275 294 308 340 336 327 324 326 328 330 326 311 298 297 294 291 288 282 272 266 261 257 250 246 243 243 239 250 253 262
340 335 339 336 343 336 319 318 319 314 301 301 297 292 295 287 342 337 335 337 336 332 332 331 335 332 316 304 300 299 295 288 279 270 265 258 253 248 244 242 245 246 254 245
323 327 330 329 336 325 334 353 353 346 341 339 334 330 332 332 335 336 339 339 340 340 338 337 336 336 328 310 304 299 296 292 284 275 267 257 251 246 241 239 238 241 242 248
316 320 323 320 325 328 336 333 332 329 326 330 326 325 328 326 332 334 332 335 337 338 337 333 333 334 332 323 310 302 297 292 288 279 270 257 242 236 233 228 227 236 237 242
321 322 324 323 321 320 325 333 337 333 328 326 325 328 332 339 331 325 326 329 331 331 333 334 332 326 325 324 320 305 291 284 278 268 256 247 234 227 226 223 222 231 242 244
329 323 316 321 318 318 330 334 335 332 318 338 338 334 333 334 322 322 327 325 321 323 324 325 326 327 322 314 312 304 286 275 266 259 247 239 233 228 229 233 233 239 240 247
322 320 310 308 310 314 321 325 327 316 319 325 327 325 323 319 318 318 317 315 317 315 314 316 316 318 314 309 300 293 283 272 265 254 245 241 237 235 236 237 233 234 245 263
318 316 315 315 311 311 335 331 325 321 321 324 323 323 318 314 312 311 309 308 309 309 311 311 309 310 308 300 297 285 278 273 263 250 242 237 233 235 229 225 236 244 253 268
309 311 310 307 306 313 322 324 324 323 318 315 314 313 313 310 309 307 305 305 304 305 305 308 309 309 305 298 293 287 278 263 252 243 239 236 233 230 225 223 233 250 265 277
312 314 307 309 311 312 312 312 315 317 314 314 314 311 308 305 304 304 305 304 303 304 303 301 301 302 300 294 291 289 278 269 254 244 237 231 226 222 230 239 246 261 274 274
316 313 311 306 310 312 311 314 315 313 311 310 309 308 306 305 303 302 300 299 299 298 299 297 296 294 291 287 281 287 274 262 257 245 238 233 230 232 237 245 255 266 268 271
326 321 317 311 316 315 313 314 316 314 312 311 311 308 306 306 303 301 299 298 297 296 296 292 291 291 287 281 276 276 259 251 248 240 231 232 227 229 233 242 267 274 276 289